When you browse on this site, cookies collect data to enhance your experience and personalize the content and advertising you see.
Visit our Privacy Policy to learn more. By continuing to use the site, you agree to this use of cookies and data.
  • In Portugal
  • List of Countries
  • For 7 days
  • Water Temperature
  • Satellite Maps
  • Weather Map
  • Weather Widgets
  • user-avatar
    Login

    Hourly Weather Belek

    Today, 23 February, Saturday

    Time Temperature Precipitation Wind Pressure Humidity
    00:00 +14°C° 0.9 mm 3 mps 761 mmHg 64%
    01:00 +14°C° 0.9 mm 3 mps 761 mmHg 65%
    02:00 +14°C° 0 mm 3 mps 761 mmHg 66%
    03:00 +14°C° 0.6 mm 3 mps 761 mmHg 67%
    04:00 +14°C° 0.6 mm 4 mps 761 mmHg 67%
    05:00 +14°C° 0.6 mm 4 mps 761 mmHg 67%
    06:00 +14°C° 0.8 mm 4 mps 761 mmHg 68%
    07:00 +14°C° 0.8 mm 4 mps 762 mmHg 68%
    08:00 +13°C° 0 mm 4 mps 762 mmHg 69%
    09:00 +13°C° 1.2 mm 4 mps 762 mmHg 71%
    10:00 +13°C° 1.2 mm 4 mps 762 mmHg 72%
    11:00 +13°C° 1.2 mm 3 mps 762 mmHg 73%
    12:00 +13°C° 1.3 mm 4 mps 762 mmHg 74%
    13:00 +13°C° 1.3 mm 4 mps 762 mmHg 75%
    14:00 +13°C° 0 mm 4 mps 763 mmHg 77%
    15:00 +13°C° 0.9 mm 4 mps 763 mmHg 76%
    16:00 +13°C° 0.9 mm 4 mps 763 mmHg 75%
    17:00 +13°C° 0.9 mm 4 mps 763 mmHg 74%
    18:00 +13°C° 0.7 mm 4 mps 763 mmHg 73%
    19:00 +13°C° 0.7 mm 3 mps 763 mmHg 72%
    20:00 +13°C° 0.7 mm 3 mps 764 mmHg 72%
    21:00 +13°C° 0.4 mm 3 mps 764 mmHg 71%
    22:00 +13°C° 0.4 mm 4 mps 764 mmHg 70%
    23:00 +13°C° 0.4 mm 4 mps 764 mmHg 69%

    Tomorrow, 24 February, Sunday

    Time Temperature Precipitation Wind Pressure Humidity
    00:00 +13°C° 0.1 mm 4 mps 764 mmHg 68%
    01:00 +13°C° 0.1 mm 4 mps 764 mmHg 67%
    02:00 +13°C° 0.1 mm 4 mps 764 mmHg 66%
    03:00 +13°C° 0 mm 4 mps 764 mmHg 65%
    04:00 +13°C° 0 mm 4 mps 764 mmHg 64%
    05:00 +13°C° 0 mm 4 mps 764 mmHg 62%
    06:00 +13°C° 0.1 mm 4 mps 764 mmHg 62%
    07:00 +13°C° 0.1 mm 4 mps 764 mmHg 62%
    08:00 +13°C° 0.1 mm 4 mps 764 mmHg 62%
    09:00 +13°C° 0.1 mm 3 mps 764 mmHg 62%
    10:00 +13°C° 0.1 mm 3 mps 764 mmHg 62%
    11:00 +13°C° 0.1 mm 3 mps 764 mmHg 62%
    12:00 +13°C° 0.1 mm 3 mps 764 mmHg 64%
    13:00 +13°C° 0.1 mm 3 mps 764 mmHg 66%
    14:00 +13°C° 0.1 mm 3 mps 763 mmHg 68%
    15:00 +14°C° 0 mm 3 mps 763 mmHg 68%
    16:00 +14°C° 0 mm 3 mps 763 mmHg 68%
    17:00 +14°C° 0 mm 3 mps 763 mmHg 68%
    18:00 +14°C° 0 mm 4 mps 764 mmHg 67%
    19:00 +14°C° 0 mm 4 mps 764 mmHg 67%
    20:00 +15°C° 0 mm 4 mps 764 mmHg 66%
    21:00 +15°C° 0 mm 4 mps 764 mmHg 65%
    22:00 +15°C° 0 mm 4 mps 764 mmHg 65%
    23:00 +15°C° 0 mm 4 mps 765 mmHg 64%

    Day after tomorrow, 25 February, Monday

    Time Temperature Precipitation Wind Pressure Humidity
    00:00 +15°C° 0 mm 4 mps 765 mmHg 63%
    01:00 +15°C° 0 mm 4 mps 765 mmHg 62%
    02:00 +15°C° 0 mm 4 mps 765 mmHg 61%
    03:00 +15°C° 0 mm 4 mps 765 mmHg 60%
    04:00 +15°C° 0 mm 5 mps 764 mmHg 60%
    05:00 +15°C° 0 mm 5 mps 764 mmHg 59%
    06:00 +15°C° 0 mm 5 mps 764 mmHg 57%
    07:00 +15°C° 0 mm 4 mps 764 mmHg 56%
    08:00 +15°C° 0 mm 4 mps 765 mmHg 55%
    09:00 +15°C° 0 mm 4 mps 764 mmHg 53%
    10:00 +16°C° 0 mm 5 mps 764 mmHg 51%
    11:00 +16°C° 0 mm 5 mps 764 mmHg 50%
    12:00 +16°C° 0 mm 5 mps 763 mmHg 48%
    13:00 +17°C° 0 mm 4 mps 762 mmHg 47%
    14:00 +18°C° 0 mm 4 mps 762 mmHg 45%
    15:00 +17°C° 0 mm 5 mps 761 mmHg 46%
    16:00 +17°C° 0 mm 6 mps 761 mmHg 47%
    17:00 +17°C° 0 mm 7 mps 760 mmHg 49%
    18:00 +17°C° 0.1 mm 8 mps 760 mmHg 51%
    19:00 +17°C° 0.1 mm 9 mps 760 mmHg 54%
    20:00 +16°C° 0.1 mm 10 mps 760 mmHg 56%
    21:00 +16°C° 0 mm 9 mps 760 mmHg 57%
    22:00 +16°C° 0 mm 9 mps 759 mmHg 57%
    23:00 +16°C° 0 mm 9 mps 759 mmHg 58%

    26 February, Tuesday

    Time Temperature Precipitation Wind Pressure Humidity
    00:00 +16°C° 0.1 mm 10 mps 758 mmHg 59%
    01:00 +16°C° 0.1 mm 10 mps 758 mmHg 60%
    02:00 +16°C° 0.1 mm 10 mps 757 mmHg 61%
    03:00 +16°C° 0.5 mm 11 mps 756 mmHg 61%
    04:00 +16°C° 0.5 mm 11 mps 756 mmHg 61%
    05:00 +16°C° 0.5 mm 11 mps 755 mmHg 62%
    06:00 +16°C° 0.5 mm 11 mps 755 mmHg 63%
    07:00 +16°C° 0.5 mm 11 mps 755 mmHg 64%
    08:00 +14°C° 0.5 mm 11 mps 755 mmHg 65%
    09:00 +16°C° 0.2 mm 10 mps 755 mmHg 63%
    10:00 +16°C° 0.2 mm 10 mps 755 mmHg 61%
    11:00 +16°C° 0.2 mm 9 mps 755 mmHg 59%
    12:00 +16°C° 0 mm 8 mps 755 mmHg 58%
    13:00 +17°C° 0 mm 7 mps 754 mmHg 56%
    14:00 +17°C° 0 mm 6 mps 754 mmHg 55%
    15:00 +17°C° 0 mm 5 mps 754 mmHg 53%
    16:00 +18°C° 0 mm 4 mps 754 mmHg 51%
    17:00 +19°C° 0 mm 3 mps 754 mmHg 50%
    18:00 +18°C° 0 mm 3 mps 754 mmHg 51%
    19:00 +18°C° 0 mm 3 mps 754 mmHg 53%
    20:00 +18°C° 0 mm 3 mps 754 mmHg 54%
    21:00 +18°C° 0 mm 4 mps 754 mmHg 54%
    22:00 +17°C° 0 mm 4 mps 754 mmHg 54%
    23:00 +16°C° 0 mm 5 mps 754 mmHg 54%

    27 February, Wednesday

    Time Temperature Precipitation Wind Pressure Humidity
    00:00 +16°C° 0 mm 5 mps 753 mmHg 53%
    01:00 +15°C° 0 mm 6 mps 753 mmHg 52%
    02:00 +15°C° 0 mm 7 mps 753 mmHg 51%
    03:00 +15°C° 0 mm 8 mps 752 mmHg 52%
    04:00 +15°C° 0 mm 9 mps 752 mmHg 53%
    05:00 +13°C° 0 mm 10 mps 752 mmHg 53%
    06:00 +13°C° 0 mm 10 mps 752 mmHg 53%
    07:00 +13°C° 0 mm 11 mps 753 mmHg 54%
    08:00 +13°C° 0 mm 11 mps 753 mmHg 54%
    09:00 +13°C° 0 mm 11 mps 753 mmHg 53%
    10:00 +13°C° 0 mm 11 mps 753 mmHg 52%
    11:00 +13°C° 0 mm 11 mps 753 mmHg 50%
    12:00 +14°C° 0 mm 10 mps 753 mmHg 48%
    13:00 +14°C° 0 mm 10 mps 753 mmHg 46%
    14:00 +16°C° 0 mm 9 mps 753 mmHg 44%
    15:00 +16°C° 0 mm 9 mps 753 mmHg 44%
    16:00 +16°C° 0 mm 9 mps 754 mmHg 44%
    17:00 +16°C° 0 mm 9 mps 754 mmHg 43%
    18:00 +15°C° 0 mm 9 mps 754 mmHg 44%
    19:00 +15°C° 0 mm 9 mps 755 mmHg 45%
    20:00 +15°C° 0 mm 9 mps 756 mmHg 45%
    21:00 +13°C° 0 mm 10 mps 756 mmHg 46%
    22:00 +13°C° 0 mm 11 mps 756 mmHg 48%
    23:00 +13°C° 0 mm 11 mps 757 mmHg 49%

    28 February, Thursday

    Time Temperature Precipitation Wind Pressure Humidity
    00:00 +12°C° 0 mm 11 mps 757 mmHg 50%
    01:00 +12°C° 0 mm 12 mps 757 mmHg 51%
    02:00 +12°C° 0 mm 12 mps 757 mmHg 53%
    03:00 +10°C° 0 mm 12 mps 757 mmHg 53%
    04:00 +10°C° 0 mm 12 mps 757 mmHg 54%
    05:00 +10°C° 0 mm 12 mps 757 mmHg 54%
    06:00 +10°C° 0 mm 12 mps 758 mmHg 54%
    07:00 +10°C° 0 mm 12 mps 758 mmHg 54%
    08:00 +10°C° 0 mm 12 mps 759 mmHg 53%
    09:00 +11°C° 0 mm 11 mps 759 mmHg 51%
    10:00 +11°C° 0 mm 11 mps 759 mmHg 49%
    11:00 +12°C° 0 mm 11 mps 759 mmHg 48%
    12:00 +12°C° 0 mm 10 mps 759 mmHg 45%
    13:00 +13°C° 0 mm 9 mps 759 mmHg 43%
    14:00 +15°C° 0 mm 8 mps 758 mmHg 40%
    15:00 +15°C° 0 mm 8 mps 758 mmHg 40%
    16:00 +16°C° 0 mm 8 mps 759 mmHg 39%
    17:00 +16°C° 0 mm 8 mps 759 mmHg 39%
    18:00 +16°C° 0 mm 8 mps 759 mmHg 40%
    19:00 +15°C° 0 mm 7 mps 760 mmHg 40%
    20:00 +15°C° 0 mm 7 mps 760 mmHg 41%
    21:00 +15°C° 0 mm 6 mps 760 mmHg 41%
    22:00 +15°C° 0 mm 6 mps 760 mmHg 42%
    23:00 +14°C° 0 mm 5 mps 760 mmHg 43%
    Show more